NKS609 KATL-KMCO

Flight info

Callsign NKS609
Flight time 1h 0m
Altitude 37000
Route SMLTZ3 WALET ZJAYX GRNCH5
Aircraft A21N/M-SDE3FGHIRWY/LB1

Departure

Time 2026-05-07 16:12
Airport Hartsfield Jackson Atlanta International Airport (KATL)

Arrival

Time 2026-05-07 17:12
Airport Orlando International Airport (KMCO)
Time Latitude Longitude Altitude Speed Heading
2026-05-07 15:39 33.63787 -84.43313 1023 ft 0 kts 90°
2026-05-07 15:59 33.63787 -84.43314 1023 ft 1 kts 90°
2026-05-07 15:59 33.63787 -84.43332 1023 ft 2 kts 90°
2026-05-07 16:00 33.63787 -84.43350 1023 ft 2 kts 90°
2026-05-07 16:00 33.63789 -84.43368 1023 ft 2 kts 118°
2026-05-07 16:00 33.63798 -84.43383 1023 ft 2 kts 140°
2026-05-07 16:00 33.63811 -84.43391 1023 ft 2 kts 164°
2026-05-07 16:01 33.63826 -84.43394 1024 ft 2 kts 185°
2026-05-07 16:01 33.63837 -84.43393 1023 ft 0 kts 180°
2026-05-07 16:01 33.63839 -84.43393 1023 ft 0 kts 179°
2026-05-07 16:03 33.63838 -84.43393 1023 ft 0 kts 179°
2026-05-07 16:03 33.63832 -84.43392 1023 ft 1 kts 179°
2026-05-07 16:03 33.63819 -84.43392 1023 ft 2 kts 180°
2026-05-07 16:03 33.63799 -84.43392 1023 ft 3 kts 180°
2026-05-07 16:04 33.63773 -84.43392 1023 ft 4 kts 181°
2026-05-07 16:04 33.63741 -84.43393 1023 ft 5 kts 181°
2026-05-07 16:04 33.63703 -84.43391 1023 ft 5 kts 168°
2026-05-07 16:04 33.63670 -84.43362 1023 ft 6 kts 119°
2026-05-07 16:05 33.63662 -84.43308 1023 ft 7 kts 90°
2026-05-07 16:05 33.63661 -84.43246 1023 ft 7 kts 91°
2026-05-07 16:05 33.63662 -84.43179 1023 ft 8 kts 89°
2026-05-07 16:05 33.63662 -84.43105 1023 ft 9 kts 90°
2026-05-07 16:06 33.63661 -84.43027 1023 ft 9 kts 90°
2026-05-07 16:06 33.63661 -84.42943 1023 ft 10 kts 91°
2026-05-07 16:06 33.63661 -84.42852 1023 ft 11 kts 90°
2026-05-07 16:06 33.63661 -84.42750 1023 ft 12 kts 92°
2026-05-07 16:07 33.63656 -84.42636 1023 ft 14 kts 93°
2026-05-07 16:07 33.63653 -84.42512 1023 ft 15 kts 91°
2026-05-07 16:07 33.63653 -84.42381 1023 ft 15 kts 90°
2026-05-07 16:07 33.63654 -84.42249 1023 ft 15 kts 90°
2026-05-07 16:08 33.63654 -84.42110 1021 ft 17 kts 90°
2026-05-07 16:08 33.63652 -84.41959 1020 ft 17 kts 91°
2026-05-07 16:08 33.63652 -84.41811 1020 ft 17 kts 89°
2026-05-07 16:08 33.63656 -84.41666 1021 ft 17 kts 88°
2026-05-07 16:09 33.63658 -84.41526 1020 ft 17 kts 89°
2026-05-07 16:09 33.63657 -84.41370 1016 ft 19 kts 90°
2026-05-07 16:09 33.63656 -84.41196 1011 ft 19 kts 90°
2026-05-07 16:09 33.63656 -84.41085 1009 ft 13 kts 90°
2026-05-07 16:10 33.63655 -84.40966 1006 ft 15 kts 90°
2026-05-07 16:10 33.63653 -84.40871 1005 ft 10 kts 102°
2026-05-07 16:10 33.63594 -84.40829 1004 ft 11 kts 179°
2026-05-07 16:10 33.63543 -84.40829 1004 ft 6 kts 180°
2026-05-07 16:11 33.63497 -84.40828 1004 ft 6 kts 182°
2026-05-07 16:11 33.63470 -84.40868 1005 ft 7 kts 268°
2026-05-07 16:11 33.63471 -84.40929 1005 ft 7 kts 271°
2026-05-07 16:11 33.63472 -84.41109 1006 ft 53 kts 270°
2026-05-07 16:12 33.63471 -84.41847 1011 ft 122 kts 270°
2026-05-07 16:12 33.63472 -84.43109 1092 ft 168 kts 272°
2026-05-07 16:12 33.63459 -84.44459 1830 ft 162 kts 270°
2026-05-07 16:12 33.63421 -84.45774 2591 ft 158 kts 270°
2026-05-07 16:13 33.63374 -84.47095 3203 ft 163 kts 270°
2026-05-07 16:13 33.63335 -84.48518 3575 ft 181 kts 271°
2026-05-07 16:13 33.63299 -84.50094 4041 ft 195 kts 271°
2026-05-07 16:13 33.63268 -84.51765 4434 ft 213 kts 271°
2026-05-07 16:14 33.63255 -84.53677 4675 ft 241 kts 271°
2026-05-07 16:14 33.63263 -84.55683 5425 ft 246 kts 271°
2026-05-07 16:14 33.63283 -84.57730 6292 ft 247 kts 272°
2026-05-07 16:14 33.63340 -84.59753 7177 ft 246 kts 272°
2026-05-07 16:15 33.63398 -84.61827 8013 ft 248 kts 271°
2026-05-07 16:15 33.63349 -84.63882 8803 ft 249 kts 259°
2026-05-07 16:15 33.62630 -84.65777 9544 ft 256 kts 236°
2026-05-07 16:15 33.61271 -84.67188 10309 ft 266 kts 217°
2026-05-07 16:16 33.59650 -84.68304 10898 ft 274 kts 216°
2026-05-07 16:16 33.57814 -84.69183 11223 ft 302 kts 200°
2026-05-07 16:16 33.55633 -84.69332 11838 ft 321 kts 183°
2026-05-07 16:16 33.53411 -84.68959 12560 ft 326 kts 180°
2026-05-07 16:17 33.51157 -84.68527 13239 ft 329 kts 180°
2026-05-07 16:17 33.48871 -84.68085 13886 ft 331 kts 180°
2026-05-07 16:17 33.46589 -84.67646 14506 ft 334 kts 181°
2026-05-07 16:17 33.44279 -84.67197 15091 ft 340 kts 179°
2026-05-07 16:18 33.41971 -84.66235 15621 ft 364 kts 162°
2026-05-07 16:18 33.39870 -84.64438 16194 ft 383 kts 147°
2026-05-07 16:18 33.37923 -84.62181 16780 ft 389 kts 143°
2026-05-07 16:18 33.35992 -84.59847 17261 ft 395 kts 143°
2026-05-07 16:19 33.34058 -84.57501 17865 ft 396 kts 143°
2026-05-07 16:19 33.32119 -84.55167 18434 ft 397 kts 144°
2026-05-07 16:19 33.30148 -84.52822 18956 ft 399 kts 144°
2026-05-07 16:19 33.28149 -84.50455 19470 ft 402 kts 144°
2026-05-07 16:20 33.26162 -84.48112 19984 ft 404 kts 144°
2026-05-07 16:20 33.24144 -84.45737 20471 ft 406 kts 144°
2026-05-07 16:20 33.22140 -84.43381 20932 ft 409 kts 144°
2026-05-07 16:20 33.20094 -84.40977 21392 ft 412 kts 144°
2026-05-07 16:21 33.18055 -84.38583 21828 ft 415 kts 144°
2026-05-07 16:21 33.15982 -84.36148 22265 ft 417 kts 144°
2026-05-07 16:21 33.13924 -84.33732 22699 ft 419 kts 144°
2026-05-07 16:21 33.11847 -84.31294 23107 ft 421 kts 144°
2026-05-07 16:22 33.09761 -84.28848 23509 ft 423 kts 145°
2026-05-07 16:22 33.07638 -84.26363 23925 ft 425 kts 144°
2026-05-07 16:22 33.05512 -84.23875 24307 ft 428 kts 144°
2026-05-07 16:22 33.03399 -84.21403 24687 ft 431 kts 145°
2026-05-07 16:23 33.01192 -84.18957 25051 ft 427 kts 151°
2026-05-07 16:23 32.98763 -84.17011 25450 ft 415 kts 162°
2026-05-07 16:23 32.96176 -84.15632 25802 ft 405 kts 171°
2026-05-07 16:23 32.93530 -84.14531 26194 ft 404 kts 173°
2026-05-07 16:24 32.90854 -84.13467 26524 ft 407 kts 173°
2026-05-07 16:24 32.88148 -84.12388 26859 ft 410 kts 173°
2026-05-07 16:24 32.85428 -84.11292 27203 ft 412 kts 172°
2026-05-07 16:24 32.82707 -84.10188 27542 ft 415 kts 172°
2026-05-07 16:25 32.79952 -84.09060 27903 ft 416 kts 172°
2026-05-07 16:25 32.77204 -84.07931 28289 ft 417 kts 172°
2026-05-07 16:25 32.74448 -84.06802 28577 ft 420 kts 172°
2026-05-07 16:25 32.71685 -84.05670 28908 ft 422 kts 172°
2026-05-07 16:26 32.68907 -84.04530 29238 ft 424 kts 172°
2026-05-07 16:26 32.66100 -84.03381 29524 ft 427 kts 172°
2026-05-07 16:26 32.63281 -84.02225 29880 ft 428 kts 172°
2026-05-07 16:26 32.61422 -84.01464 30103 ft 429 kts 172°
2026-05-07 16:27 32.57623 -83.99908 30476 ft 432 kts 172°
2026-05-07 16:27 32.54769 -83.98740 30780 ft 434 kts 172°
2026-05-07 16:27 32.51912 -83.97573 31069 ft 436 kts 171°
2026-05-07 16:27 32.49014 -83.96390 31349 ft 438 kts 171°
2026-05-07 16:28 32.46145 -83.95219 31642 ft 439 kts 171°
2026-05-07 16:28 32.43224 -83.94000 31911 ft 443 kts 169°
2026-05-07 16:28 32.40368 -83.92633 32166 ft 450 kts 166°
2026-05-07 16:28 32.37529 -83.91049 32427 ft 456 kts 162°
2026-05-07 16:29 32.34721 -83.89239 32667 ft 463 kts 159°
2026-05-07 16:29 32.31973 -83.87212 32940 ft 468 kts 155°
2026-05-07 16:29 32.29295 -83.84960 33262 ft 473 kts 152°
2026-05-07 16:29 32.26669 -83.82629 33555 ft 475 kts 151°
2026-05-07 16:30 32.24011 -83.80253 33823 ft 477 kts 152°
2026-05-07 16:30 32.21384 -83.77911 34215 ft 475 kts 151°
2026-05-07 16:30 32.18736 -83.75558 34574 ft 475 kts 152°
2026-05-07 16:30 32.16081 -83.73204 34936 ft 474 kts 152°
2026-05-07 16:31 32.13477 -83.70899 35311 ft 473 kts 152°
2026-05-07 16:31 32.10820 -83.68551 35617 ft 473 kts 152°
2026-05-07 16:31 32.08208 -83.66249 35839 ft 474 kts 152°
2026-05-07 16:31 32.05581 -83.63935 36091 ft 475 kts 151°
2026-05-07 16:32 32.02913 -83.61590 36318 ft 476 kts 151°
2026-05-07 16:32 32.00268 -83.59261 36458 ft 479 kts 152°
2026-05-07 16:32 31.97610 -83.56923 36659 ft 480 kts 151°
2026-05-07 16:32 31.94911 -83.54551 36857 ft 481 kts 151°
2026-05-07 16:33 31.92242 -83.52206 36953 ft 483 kts 151°
2026-05-07 16:33 31.86855 -83.47481 36953 ft 483 kts 151°
2026-05-07 16:34 31.81472 -83.42762 36961 ft 484 kts 151°
2026-05-07 16:34 31.76063 -83.38026 36965 ft 485 kts 150°
2026-05-07 16:35 31.70636 -83.33280 36971 ft 483 kts 151°
2026-05-07 16:35 31.65192 -83.28663 36977 ft 479 kts 155°
2026-05-07 16:36 31.59513 -83.24799 36977 ft 471 kts 162°
2026-05-07 16:36 31.53600 -83.21481 36973 ft 471 kts 163°
2026-05-07 16:37 31.47644 -83.18169 36978 ft 473 kts 163°
2026-05-07 16:37 31.41713 -83.14861 36974 ft 474 kts 163°
2026-05-07 16:38 31.35772 -83.11546 36973 ft 474 kts 163°
2026-05-07 16:38 31.29802 -83.08218 36975 ft 475 kts 163°
2026-05-07 16:39 31.23813 -83.04882 36973 ft 476 kts 163°
2026-05-07 16:39 31.17853 -83.01569 36974 ft 476 kts 162°
2026-05-07 16:40 31.11859 -82.98241 36978 ft 476 kts 162°
2026-05-07 16:40 31.05848 -82.94905 36987 ft 477 kts 162°
2026-05-07 16:41 30.99866 -82.91591 36992 ft 478 kts 162°
2026-05-07 16:41 30.93877 -82.88268 36989 ft 480 kts 161°
2026-05-07 16:42 30.87985 -82.84391 36987 ft 490 kts 154°
2026-05-07 16:42 30.82466 -82.79708 36985 ft 494 kts 148°
2026-05-07 16:43 30.77021 -82.74753 36980 ft 495 kts 148°
2026-05-07 16:43 30.71629 -82.69863 36979 ft 494 kts 148°
2026-05-07 16:44 30.66202 -82.64967 36977 ft 494 kts 148°
2026-05-07 16:44 30.60737 -82.60052 36979 ft 494 kts 148°
2026-05-07 16:45 30.55300 -82.55169 36976 ft 495 kts 148°
2026-05-07 16:45 30.49863 -82.50292 36977 ft 495 kts 148°
2026-05-07 16:46 30.44430 -82.45425 36977 ft 496 kts 148°
2026-05-07 16:46 30.38942 -82.40517 36360 ft 498 kts 148°
2026-05-07 16:46 30.36217 -82.38080 35606 ft 499 kts 148°
2026-05-07 16:47 30.33468 -82.35620 34885 ft 498 kts 148°
2026-05-07 16:47 30.30719 -82.33165 34144 ft 497 kts 149°
2026-05-07 16:47 30.27992 -82.30733 33451 ft 495 kts 149°
2026-05-07 16:47 30.25231 -82.28432 32911 ft 485 kts 153°
2026-05-07 16:48 30.22384 -82.26453 32471 ft 474 kts 159°
2026-05-07 16:48 30.19442 -82.24792 32023 ft 463 kts 165°
2026-05-07 16:48 30.16472 -82.23465 31567 ft 453 kts 169°
2026-05-07 16:48 30.13504 -82.22457 31125 ft 443 kts 174°
2026-05-07 16:49 30.10529 -82.21738 30687 ft 434 kts 179°
2026-05-07 16:49 30.07547 -82.21153 30241 ft 429 kts 179°
2026-05-07 16:49 30.04622 -82.20594 29782 ft 426 kts 179°
2026-05-07 16:49 30.01725 -82.20036 29342 ft 422 kts 179°
2026-05-07 16:50 29.98824 -82.19468 28901 ft 418 kts 179°
2026-05-07 16:50 29.95980 -82.18908 28453 ft 416 kts 179°
2026-05-07 16:50 29.93141 -82.18349 27995 ft 413 kts 179°
2026-05-07 16:50 29.90296 -82.17786 27549 ft 411 kts 179°
2026-05-07 16:51 29.87510 -82.17231 27126 ft 408 kts 179°
2026-05-07 16:51 29.84697 -82.16669 26688 ft 405 kts 178°
2026-05-07 16:51 29.81939 -82.16119 26262 ft 402 kts 178°
2026-05-07 16:51 29.79184 -82.15569 25819 ft 400 kts 178°
2026-05-07 16:52 29.76456 -82.15026 25377 ft 397 kts 178°
2026-05-07 16:52 29.73712 -82.14481 24938 ft 395 kts 178°
2026-05-07 16:52 29.71029 -82.13947 24504 ft 393 kts 178°
2026-05-07 16:52 29.68316 -82.13406 24052 ft 391 kts 178°
2026-05-07 16:53 29.65656 -82.12877 23610 ft 388 kts 178°
2026-05-07 16:53 29.62971 -82.12343 23173 ft 386 kts 178°
2026-05-07 16:53 29.60343 -82.11822 22729 ft 384 kts 178°
2026-05-07 16:53 29.57693 -82.11295 22285 ft 382 kts 178°
2026-05-07 16:54 29.55101 -82.10781 21859 ft 380 kts 178°
2026-05-07 16:54 29.52485 -82.10263 21415 ft 378 kts 178°
2026-05-07 16:54 29.49879 -82.09747 20978 ft 376 kts 178°
2026-05-07 16:54 29.47288 -82.09235 20553 ft 374 kts 177°
2026-05-07 16:55 29.44724 -82.08727 20123 ft 372 kts 177°
2026-05-07 16:55 29.42160 -82.08221 19698 ft 370 kts 177°
2026-05-07 16:55 29.39652 -82.07725 19285 ft 368 kts 177°
2026-05-07 16:55 29.37117 -82.07225 18857 ft 366 kts 177°
2026-05-07 16:56 29.34622 -82.06733 18444 ft 364 kts 176°
2026-05-07 16:56 29.32117 -82.06173 18002 ft 365 kts 172°
2026-05-07 16:56 29.27388 -82.03955 17165 ft 370 kts 157°
2026-05-07 16:57 29.25127 -82.02529 16748 ft 368 kts 155°
2026-05-07 16:57 29.22896 -82.01092 16349 ft 365 kts 155°
2026-05-07 16:57 29.20698 -81.99683 15941 ft 362 kts 155°
2026-05-07 16:57 29.18499 -81.98285 15542 ft 359 kts 156°
2026-05-07 16:58 29.16321 -81.96909 15149 ft 357 kts 156°
2026-05-07 16:58 29.14151 -81.95543 14745 ft 354 kts 156°
2026-05-07 16:58 29.11976 -81.94177 14342 ft 352 kts 156°
2026-05-07 16:58 29.09845 -81.92839 13943 ft 349 kts 155°
2026-05-07 16:59 29.07766 -81.91460 13559 ft 349 kts 151°
2026-05-07 16:59 29.05800 -81.89803 13136 ft 349 kts 144°
2026-05-07 16:59 29.03989 -81.87936 12737 ft 348 kts 140°
2026-05-07 16:59 29.02262 -81.86066 12347 ft 346 kts 140°
2026-05-07 17:00 29.00516 -81.84167 11945 ft 343 kts 140°
2026-05-07 17:00 28.98795 -81.82256 11548 ft 342 kts 137°
2026-05-07 17:00 28.97219 -81.80242 11147 ft 341 kts 132°
2026-05-07 17:00 28.95755 -81.78110 10748 ft 339 kts 130°
2026-05-07 17:01 28.94338 -81.75990 10364 ft 337 kts 130°
2026-05-07 17:01 28.92931 -81.73884 10040 ft 331 kts 130°
2026-05-07 17:01 28.91544 -81.71812 9919 ft 319 kts 130°
2026-05-07 17:01 28.90216 -81.69836 9621 ft 314 kts 130°
2026-05-07 17:02 28.88891 -81.67873 9239 ft 312 kts 130°
2026-05-07 17:02 28.87559 -81.65904 8857 ft 309 kts 130°
2026-05-07 17:02 28.86251 -81.63969 8490 ft 307 kts 130°
2026-05-07 17:02 28.84959 -81.62058 8116 ft 304 kts 129°
2026-05-07 17:03 28.83678 -81.60160 7757 ft 302 kts 129°
2026-05-07 17:03 28.82403 -81.58272 7404 ft 299 kts 129°
2026-05-07 17:03 28.81144 -81.56406 7171 ft 291 kts 129°
2026-05-07 17:03 28.79929 -81.54597 7062 ft 279 kts 129°
2026-05-07 17:04 28.78808 -81.52846 6920 ft 270 kts 126°
2026-05-07 17:04 28.77807 -81.51100 6855 ft 257 kts 125°
2026-05-07 17:04 28.76838 -81.49385 6529 ft 259 kts 124°
2026-05-07 17:04 28.75865 -81.47659 6210 ft 260 kts 124°
2026-05-07 17:05 28.74891 -81.45933 6025 ft 252 kts 124°
2026-05-07 17:05 28.73953 -81.44270 5949 ft 248 kts 124°
2026-05-07 17:05 28.73091 -81.42583 5881 ft 245 kts 117°
2026-05-07 17:05 28.72481 -81.40788 5797 ft 246 kts 108°
2026-05-07 17:06 28.72012 -81.38892 5576 ft 247 kts 105°
2026-05-07 17:06 28.71579 -81.37022 5268 ft 246 kts 106°
2026-05-07 17:06 28.71120 -81.35156 4961 ft 244 kts 109°
2026-05-07 17:06 28.70310 -81.33500 4603 ft 240 kts 139°
2026-05-07 17:07 28.68885 -81.32568 4318 ft 231 kts 169°
2026-05-07 17:07 28.67316 -81.32486 4074 ft 223 kts 186°
2026-05-07 17:07 28.65786 -81.32608 3815 ft 219 kts 187°
2026-05-07 17:07 28.64266 -81.32716 3560 ft 216 kts 185°
2026-05-07 17:08 28.62760 -81.32791 3362 ft 210 kts 184°
2026-05-07 17:08 28.61317 -81.32819 3134 ft 208 kts 182°
2026-05-07 17:08 28.59868 -81.32858 2863 ft 209 kts 184°
2026-05-07 17:08 28.58406 -81.32871 2590 ft 210 kts 182°
2026-05-07 17:09 28.56928 -81.32847 2326 ft 210 kts 181°
2026-05-07 17:09 28.55459 -81.32809 2041 ft 209 kts 180°
2026-05-07 17:09 28.54052 -81.32780 1913 ft 196 kts 182°
2026-05-07 17:09 28.52714 -81.32773 1706 ft 188 kts 182°
2026-05-07 17:10 28.51422 -81.32767 1398 ft 178 kts 183°
2026-05-07 17:10 28.50232 -81.32752 1123 ft 166 kts 181°
2026-05-07 17:10 28.49122 -81.32732 892 ft 152 kts 182°
2026-05-07 17:10 28.48095 -81.32727 690 ft 142 kts 183°
2026-05-07 17:11 28.47098 -81.32713 559 ft 142 kts 182°
2026-05-07 17:11 28.46113 -81.32708 363 ft 138 kts 184°
2026-05-07 17:11 28.45160 -81.32700 186 ft 137 kts 183°
2026-05-07 17:11 28.44217 -81.32688 94 ft 125 kts 182°
2026-05-07 17:12 28.43530 -81.32689 94 ft 70 kts 180°
2026-05-07 17:12 28.43133 -81.32683 95 ft 50 kts 179°
2026-05-07 17:12 28.42874 -81.32677 95 ft 26 kts 179°
2026-05-07 17:12 28.42697 -81.32659 96 ft 24 kts 162°
2026-05-07 17:13 28.42577 -81.32533 95 ft 23 kts 120°
2026-05-07 17:13 28.42497 -81.32376 94 ft 22 kts 116°
2026-05-07 17:13 28.42425 -81.32219 93 ft 22 kts 120°
2026-05-07 17:13 28.42348 -81.32067 92 ft 21 kts 109°
2026-05-07 17:14 28.42342 -81.31908 91 ft 14 kts 90°
2026-05-07 17:14 28.42394 -81.31829 90 ft 14 kts
2026-05-07 17:14 28.42498 -81.31834 90 ft 15 kts 359°
2026-05-07 17:14 28.42603 -81.31837 90 ft 15 kts 359°
2026-05-07 17:15 28.42710 -81.31839 90 ft 15 kts 359°
2026-05-07 17:15 28.42818 -81.31839 90 ft 15 kts
2026-05-07 17:15 28.42929 -81.31837 90 ft 16 kts
2026-05-07 17:15 28.43047 -81.31838 90 ft 16 kts 360°
2026-05-07 17:16 28.43162 -81.31840 91 ft 16 kts 358°
2026-05-07 17:16 28.43269 -81.31842 91 ft 15 kts 360°
2026-05-07 17:16 28.43370 -81.31843 91 ft 13 kts
2026-05-07 17:16 28.43461 -81.31829 91 ft 12 kts 32°
2026-05-07 17:17 28.43507 -81.31747 91 ft 10 kts 81°
2026-05-07 17:17 28.43506 -81.31708 91 ft 4 kts 104°
2026-05-07 17:17 28.43492 -81.31678 90 ft 4 kts 133°
2026-05-07 17:17 28.43466 -81.31657 90 ft 4 kts 147°
2026-05-07 17:18 28.43445 -81.31634 90 ft 4 kts 127°
2026-05-07 17:18 28.43429 -81.31606 90 ft 4 kts 120°
2026-05-07 17:18 28.43420 -81.31587 90 ft 1 kts 119°
2026-05-07 17:18 28.43416 -81.31580 90 ft 0 kts 119°